This demonstration page uses our WeatherBlox Daily Observations layout. Learn more.

41.55636, -103.73856

Hourly Observations for May 31, 2016

Temp ( °F °C ) Dew Point ( °F °C ) Humidity (%) Winds ( mph kmh ) Pressure ( in mb ) Visibility ( mi km ) Precip ( " mm )
12:53 am 00:53 Cloudy 54 12.2 45 7.2 72 72 NNW 10 17 30.01 1016 10 16.0934 0 0.0254
1:53 am 01:53 Cloudy with Light Rain 52 11.1 43 6.1 72 72 WNW 6 9 30.02 1017 10 16.0934 0 0.0254
2:53 am 02:53 Cloudy 50 10 43 6.1 77 77 W 5 7 30.01 1016 10 16.0934 0 0.0254
3:53 am 03:53 Cloudy 50 10 42 5.6 74 74 NNW 6 9 30.01 1016 10 16.0934 0 0
4:53 am 04:53 Cloudy 50 10 42 5.6 74 74 WNW 8 13 30.01 1016 10 16.0934 0 0
5:53 am 05:53 Cloudy 50 10 41 5 71 71 WNW 6 9 30.02 1017 10 16.0934 0 0
6:53 am 06:53 Cloudy 50 10 42 5.6 74 74 NW 9 15 30.04 1017 10 16.0934 0 0
7:53 am 07:53 Cloudy 51 10.6 42 5.6 71 71 NW 9 15 30.05 1018 10 16.0934 0 0
8:53 am 08:53 Cloudy 53 11.7 43 6.1 69 69 WNW 5 7 30.07 1018 10 16.0934 0 0
9:53 am 09:53 Cloudy 57 13.9 44 6.7 62 62 W 9 15 30.06 1018 10 16.0934 0 0.0254
10:53 am 10:53 Partly Cloudy 61 16 39 4 45 45 W 9 15 30 1016 10 16.0934 0 0
11:53 am 11:53 Sunny 64 17.8 40 4.4 41 41 W 12 19 30.02 1017 10 16.0934 0 0
12:53 pm 12:53 Mostly Sunny 67 19.4 40 4.4 37 37 WNW 9 15 29.98 1015 10 16.0934 0 0
1:53 pm 13:53 Mostly Sunny 69 20.6 39 3.9 33 33 W 9 15 29.97 1015 10 16.0934 0 0
2:53 pm 14:53 Partly Cloudy 71 21.7 38 3.3 30 30 W 15 24 29.95 1014 10 16.0934 0 0
3:53 pm 15:53 Mostly Cloudy 73 22.8 38 3.3 28 28 NW 13 20 29.93 1014 10 16.0934 0 0
4:53 pm 16:53 Mostly Cloudy 69 20.6 32 0 25 25 WNW 14 22 29.94 1014 10 16.0934 0 0
5:53 pm 17:53 Sunny 71 21.7 28 -2.2 20 20 NNW 18 30 29.94 1014 10 16.0934 0 0
6:53 pm 18:53 Mostly Sunny 67 19.4 35 1.7 31 31 NNE 20 31 29.98 1015 10 16.0934 0 0
7:53 pm 19:53 Sunny 62 16.7 37 2.8 40 40 N 16 26 30.01 1016 10 16.0934 0 0
8:53 pm 20:53 Clear 55 12.8 37 2.8 51 51 NE 6 9 30.06 1018 10 16.0934 0 0
9:53 pm 21:53 Clear 51 10.6 38 3.3 61 61 NNE 7 11 30.09 1019 10 16.0934 0 0
10:53 pm 22:53 Clear 47 8.3 38 3.3 71 71 NNW 8 13 30.11 1020 10 16.0934 0 0
11:53 pm 23:53 Clear 45 7.2 37 2.8 74 74 NNW 9 15 30.11 1020 10 16.0934 0 0

Powered by AerisWeather